Regional Weather Roundup
Issued by NWS

Home | Current Version | Previous Version | Text Only | Print | Product List | Glossary Off
Versions: 1 2 3 4 5 6 7 8 9 10 11 12 13 14 15 16 17 18 19 20 21 22 23 24 25 26 27 28 29 30 31 32 33 34 35 36 37 38 39 40 41 42 43 44 45 46 47 48 49 50

000
ASUS45 KCYS 192210
RWRWY

WYOMING REGIONAL WEATHER ROUNDUP
NATIONAL WEATHER SERVICE CHEYENNE WY
300 PM MST FRI DEC 19 2014

NOTE:  "FAIR" INDICATES FEW OR NO CLOUDS BELOW 12,000 FEET
WITH NO SIGNIFICANT WEATHER AND/OR OBSTRUCTIONS TO VISIBILITY.

WYZ001-192300-
YELLOWSTONE NATIONAL PARK

CITY           SKY/WX    TMP DP  RH WIND       PRES   REMARKS
LK YELLOWSTONE   N/A     26  21  81 VRB6      30.03S WCI  19
W YELLOWSTONE  NOT AVBL

$$
WYZ002>013-054>058-071-098>099-192300-
NORTHERN WYOMING

CITY           SKY/WX    TMP DP  RH WIND       PRES   REMARKS
JACKSON        CLOUDY    34  27  75 S6        30.05F WCI  29
CODY           FAIR      39  25  56 W14       29.90R WCI  31
GREYBULL       FAIR      28  17  63 CALM      29.96F
WORLAND        FAIR      20  13  74 CALM      29.95F
SHERIDAN       FAIR      41  21  44 SE3       29.88S
BUFFALO        FAIR      37  20  50 SE5       29.91R WCI  33
GILLETTE       CLOUDY    36  22  56 S7        29.90F WCI  30
HULETT           N/A    N/A N/A N/A MISG        N/A
NEWCASTLE      FAIR      39  18  41 SE5       29.95S

$$
WYZ014>020-022>026-101>103-192300-
CENTRAL WYOMING

CITY           SKY/WX    TMP DP  RH WIND       PRES   REMARKS
BIG PINEY      FAIR      34  18  52 E7        30.07F WCI  28
PINEDALE       CLOUDY    32  21  64 W3        30.08F
DUBOIS         NOT AVBL
LANDER         FAIR      11   7  84 CALM      29.98R
RIVERTON       FAIR      13  10  88 CALM      29.99S
CASPER         FAIR      32  22  66 SW22      29.97S WCI  19
DOUGLAS        FAIR      39  21  48 W13       29.97R WCI  31

$$
WYZ021-027>030-104>119-192300-
SOUTHERN WYOMING

CITY           SKY/WX    TMP DP  RH WIND       PRES   REMARKS
EVANSTON       CLOUDY    35  21  56 SW14      30.08F WCI  26
KEMMERER       FAIR      34  21  60 W9        30.08F WCI  26
FORT BRIDGER   CLOUDY    37  22  54 W12       30.12S WCI  29
ROCK SPRINGS   CLOUDY    33  22  63 W17       30.10R WCI  22
DIXON          FAIR      25  21  85 CALM      30.18S
RAWLINS        PTSUNNY   27  20  75 W15G25    30.02F WCI  15
SARATOGA       FAIR      32  21  64 S7        30.08R WCI  26
LARAMIE        FAIR      31  16  54 W18       30.00R WCI  19
CHEYENNE       FAIR      37  13  37 W21G33    29.99S WCI  26
TORRINGTON     FAIR     N/A N/A N/A W16       29.96S
PINE BLUFFS    FAIR      41  18  38 NW15G22   29.99S

$$


USA.gov is the U.S. government's official web portal to all federal, state and local government web resources and services.